CW6538 Cattolica IT current weather conditions

sailwx.info

Wind from 278 at 5 knots gusting 16

Air temperature 13.3° C
Dewpoint -5.8° C

Last reported at 2014-Oct-23 01:49 UTC.
Time now 2014-Oct-23 02:31 UTC

Location: N 43°58' E 012°44'.
View on Google Maps.

See reports from other nearby stations

  
Tides and Currents Weather Stations Pressure Air Temp Water Temp Dewpoint Dewpoint Depression Visibility Wind Speed Wind Dir Waves Ship Positions
date/time (UTC)wind fromknots sea level pressurealtimeterstation pressurevisibilityair tempwater tempwave heightnotes
2014-Oct-23 01:49 278 5 gusting 16 13.3
2014-Oct-23 01:44 295 6 gusting 15 13.3
2014-Oct-23 01:39 325 6 gusting 13 13.3
2014-Oct-23 01:34 319 6 gusting 15 13.3
2014-Oct-23 01:29 315 6 gusting 15 13.3
2014-Oct-23 01:24 282 7 gusting 12 13.3
2014-Oct-23 01:19 327 7 gusting 11 13.3
2014-Oct-23 01:14 299 5 gusting 13 13.3
2014-Oct-23 01:09 323 7 gusting 12 13.3
2014-Oct-23 01:04 306 6 gusting 10 13.3
2014-Oct-23 00:59 284 6 gusting 13 13.3
2014-Oct-23 00:54 313 6 gusting 13 13.3
2014-Oct-23 00:49 324 7 gusting 12 13.3
2014-Oct-23 00:44 247 6 gusting 13 13.3
2014-Oct-23 00:33 274 6 gusting 16 13.3
2014-Oct-23 00:29 317 9 gusting 16 13.3
2014-Oct-23 00:24 270 6 gusting 19 13.3
2014-Oct-23 00:19 327 8 gusting 18 13.3
2014-Oct-23 00:14 269 8 gusting 19 13.3
2014-Oct-23 00:09 263 8 gusting 19 13.3
2014-Oct-23 00:04 281 12 gusting 17 13.3
2014-Oct-22 23:58 302 9 gusting 17 13.3
2014-Oct-22 23:54 286 9 gusting 17 13.3
2014-Oct-22 23:48 315 9 gusting 16 13.3
2014-Oct-22 23:44 311 8 gusting 20 13.3
2014-Oct-22 23:39 254 7 gusting 20 13.3
2014-Oct-22 23:34 290 10 gusting 18 13.3
2014-Oct-22 23:29 336 9 gusting 18 13.3
2014-Oct-22 23:24 317 10 gusting 18 13.3
2014-Oct-22 23:18 303 9 gusting 18 13.3
2014-Oct-22 23:14 273 9 gusting 18 13.3
2014-Oct-22 23:08 292 7 gusting 18 13.3
2014-Oct-22 23:04 240 6 gusting 19 13.3
2014-Oct-22 22:58 279 10 gusting 19 13.3
2014-Oct-22 22:54 288 10 gusting 18 13.3
2014-Oct-22 22:49 297 12 gusting 18 13.3
2014-Oct-22 22:43 326 6 gusting 18 13.3
2014-Oct-22 22:39 309 11 gusting 18 13.3
2014-Oct-22 22:33 291 9 gusting 18 13.3
2014-Oct-22 22:29 299 7 gusting 15 13.3
2014-Oct-22 22:23 300 7 gusting 22 13.3
2014-Oct-22 22:19 322 8 gusting 22 13.3
2014-Oct-22 22:14 285 8 gusting 19 13.3
2014-Oct-22 22:09 301 9 gusting 16 13.3
2014-Oct-22 22:04 310 7 gusting 16 13.3
2014-Oct-22 21:59 300 7 gusting 16 13.3
2014-Oct-22 21:54 340 9 gusting 17 13.3
2014-Oct-22 21:49 292 7 gusting 17 13.3
2014-Oct-22 21:44 248 9 gusting 18 13.3
2014-Oct-22 21:39 302 7 gusting 18 13.3
2014-Oct-22 21:33 298 8 gusting 19 13.3
2014-Oct-22 21:29 290 10 gusting 19 13.3
2014-Oct-22 21:24 332 8 gusting 18 13.3
2014-Oct-22 21:19 304 11 gusting 18 13.3
2014-Oct-22 21:14 302 8 gusting 13 13.3
2014-Oct-22 21:09 263 6 gusting 16 13.3
2014-Oct-22 21:04 289 9 gusting 16 13.3
2014-Oct-22 20:59 275 6 gusting 13 13.3
2014-Oct-22 20:54 312 7 gusting 17 13.9
2014-Oct-22 20:48 304 10 gusting 17 13.3
2014-Oct-22 20:44 342 6 gusting 15 13.3
2014-Oct-22 20:39 316 9 gusting 18 13.3
2014-Oct-22 20:29 278 9 gusting 19 13.3
2014-Oct-22 20:23 288 7 gusting 17 13.3
2014-Oct-22 20:19 267 7 gusting 17 13.3
2014-Oct-22 20:14 284 7 gusting 12 13.3
2014-Oct-22 20:09 302 6 gusting 13 13.3
2014-Oct-22 20:04 296 6 gusting 13 13.3
2014-Oct-22 19:59 298 6 gusting 12 13.3
2014-Oct-22 19:54 306 6 gusting 11 13.3
2014-Oct-22 19:49 329 6 gusting 11 13.3
2014-Oct-22 19:44 327 6 gusting 12 13.3
2014-Oct-22 19:39 284 5 gusting 13 13.3
2014-Oct-22 19:34 279 6 gusting 13 13.3
2014-Oct-22 19:29 317 6 gusting 13 13.3
2014-Oct-22 19:24 303 7 gusting 12 13.3
2014-Oct-22 19:13 282 6 gusting 13 13.3
2014-Oct-22 19:04 280 6 gusting 11 12.8
2014-Oct-22 18:59 294 4 gusting 9 12.8
2014-Oct-22 18:54 262 6 gusting 10 12.8
2014-Oct-22 18:49 277 2 gusting 11 12.2
2014-Oct-22 18:44 302 4 gusting 11 12.2
2014-Oct-22 18:38 282 2 gusting 10 11.7
2014-Oct-22 18:33 273 5 gusting 10 11.7
2014-Oct-22 18:29 272 2 gusting 7 11.7
2014-Oct-22 18:24 261 2 gusting 6 11.1
2014-Oct-22 18:19 249 1 gusting 5 11.1
2014-Oct-22 18:14 249 2 gusting 5 11.1
2014-Oct-22 18:09 285 1 gusting 10 11.1
2014-Oct-22 18:04 286 1 gusting 10 10.6
2014-Oct-22 17:54 187 1 gusting 6 10.0
2014-Oct-22 17:49 187 1 gusting 4 10.0
2014-Oct-22 17:44 187 0 gusting 2 10.0
2014-Oct-22 17:39 187 2 gusting 4 10.0
2014-Oct-22 17:34 187 2 gusting 5 10.0
2014-Oct-22 17:29 187 3 gusting 6 10.0
2014-Oct-22 17:24 223 1 gusting 9 10.0
2014-Oct-22 17:19 217 3 gusting 9 10.0
2014-Oct-22 17:14 226 4 gusting 6 10.0
2014-Oct-22 17:09 180 3 gusting 6 10.0
2014-Oct-22 17:04 189 4 gusting 6 10.0
2014-Oct-22 16:59 207 4 gusting 6 10.6
2014-Oct-22 16:54 178 2 gusting 5 10.6
2014-Oct-22 16:49 180 4 gusting 6 10.6
2014-Oct-22 16:44 181 3 gusting 6 10.6
2014-Oct-22 16:39 178 3 gusting 6 11.1
2014-Oct-22 16:34 178 4 gusting 6 11.1
2014-Oct-22 16:29 170 3 gusting 5 11.1
2014-Oct-22 16:23 188 3 gusting 6 11.1
2014-Oct-22 16:19 209 3 gusting 7 11.1
2014-Oct-22 16:14 186 4 gusting 7 11.7
2014-Oct-22 16:09 226 3 gusting 7 11.7
2014-Oct-22 16:03 210 5 gusting 11 11.7
2014-Oct-22 15:59 192 5 gusting 8 11.7
2014-Oct-22 15:54 229 4 gusting 8 11.7
2014-Oct-22 15:49 188 6 gusting 8 11.7
2014-Oct-22 15:44 186 4 gusting 8 11.7
2014-Oct-22 15:34 202 5 gusting 11 12.2
2014-Oct-22 15:28 224 6 gusting 11 12.2
2014-Oct-22 15:24 209 5 gusting 13 12.2
2014-Oct-22 15:19 228 7 gusting 13 12.2
2014-Oct-22 15:14 210 7 gusting 13 12.2
2014-Oct-22 15:09 204 8 gusting 13 12.2
2014-Oct-22 15:03 221 7 gusting 12 12.2
2014-Oct-22 14:59 240 6 gusting 11 12.2
2014-Oct-22 14:53 194 6 gusting 10 12.2
2014-Oct-22 14:49 189 6 gusting 8 12.8
2014-Oct-22 14:44 229 4 gusting 7 12.8
2014-Oct-22 14:39 178 5 gusting 8 12.2
2014-Oct-22 14:33 186 6 gusting 8 12.2
2014-Oct-22 14:29 138 5 gusting 8 11.7
2014-Oct-22 14:24 186 4 gusting 8 11.7
2014-Oct-22 14:19 167 6 gusting 11 11.7
2014-Oct-22 14:14 161 5 gusting 12 11.7
2014-Oct-22 14:09 126 7 gusting 15 11.7
2014-Oct-22 14:03 110 10 gusting 16 11.7
2014-Oct-22 13:59 120 8 gusting 16 11.7
2014-Oct-22 13:53 081 10 gusting 22 11.7
2014-Oct-22 13:48 068 8 gusting 22 11.7
2014-Oct-22 13:44 033 12 gusting 20 11.1
2014-Oct-22 13:39 069 8 gusting 19 11.1
2014-Oct-22 13:34 038 7 gusting 16 10.6
2014-Oct-22 13:29 052 6 gusting 19 10.6
2014-Oct-22 13:24 037 11 gusting 19 10.0
2014-Oct-22 13:19 005 8 gusting 18 9.4
2014-Oct-22 13:14 337 0 gusting 10 8.9
2014-Oct-22 13:09 329 3 gusting 6 8.9
2014-Oct-22 13:04 351 5 gusting 6 8.9
2014-Oct-22 12:58 201 3 gusting 7 8.9
2014-Oct-22 12:54 213 4 gusting 8 8.9
2014-Oct-22 12:49 242 4 gusting 8 8.9
2014-Oct-22 12:44 225 6 gusting 8 8.3
2014-Oct-22 12:39 210 5 gusting 6 8.9
2014-Oct-22 12:34 159 2 gusting 9 8.9
2014-Oct-22 12:29 065 4 gusting 16 9.4
2014-Oct-22 12:24 046 8 gusting 16 10.0
2014-Oct-22 12:19 251 1 gusting 4 11.1
2014-Oct-22 12:14 157 3 gusting 4 11.1
2014-Oct-22 12:09 087 11.1
2014-Oct-22 12:04 069 5 gusting 11 11.1
2014-Oct-22 11:59 152 4 gusting 30 11.7
2014-Oct-22 11:54 071 10 gusting 33 11.7
2014-Oct-22 11:49 213 21 gusting 33 11.7
2014-Oct-22 11:43 179 13 gusting 18 12.2
2014-Oct-22 11:38 226 11 gusting 15 13.9
2014-Oct-22 11:34 251 6 gusting 8 15.0
2014-Oct-22 11:29 173 3 gusting 6 15.6
2014-Oct-22 11:24 150 1 gusting 6 15.6
2014-Oct-22 11:19 127 2 gusting 6 16.1
2014-Oct-22 11:14 107 4 gusting 9 16.1
2014-Oct-22 11:08 112 6 gusting 13 16.1
2014-Oct-22 11:04 114 6 gusting 13 16.7
2014-Oct-22 10:59 033 8 gusting 13 16.7
2014-Oct-22 10:54 005 6 gusting 15 16.7
2014-Oct-22 10:49 017 7 gusting 15 16.7
2014-Oct-22 10:44 026 6 gusting 13 16.7
2014-Oct-22 10:39 046 5 gusting 12 16.7
2014-Oct-22 10:33 055 7 gusting 13 16.7
2014-Oct-22 10:29 052 7 gusting 12 16.7
2014-Oct-22 10:24 031 7 gusting 12 16.7
2014-Oct-22 10:19 011 5 gusting 13 16.7
2014-Oct-22 10:14 042 7 gusting 13 16.7
2014-Oct-22 10:09 022 7 gusting 13 17.2
2014-Oct-22 10:04 350 7 gusting 17 17.2
2014-Oct-22 09:59 351 8 gusting 17 17.2
2014-Oct-22 09:53 036 9 gusting 15 17.2
2014-Oct-22 09:49 033 8 gusting 15 17.2
2014-Oct-22 09:44 360 6 gusting 12 18.3
2014-Oct-22 09:38 051 7 gusting 13 18.3
2014-Oct-22 09:34 030 8 gusting 13 18.3
2014-Oct-22 09:29 027 6 gusting 15 17.8
2014-Oct-22 09:24 035 8 gusting 15 17.8
2014-Oct-22 09:19 360 8 gusting 16 17.8
2014-Oct-22 09:13 342 8 gusting 13 17.8
2014-Oct-22 09:09 034 7 gusting 13 17.8
2014-Oct-22 09:04 043 5 gusting 16 17.8
2014-Oct-22 08:59 024 8 gusting 16 17.8
2014-Oct-22 08:54 021 6 gusting 13 17.8
2014-Oct-22 08:49 355 5 gusting 16 17.2
2014-Oct-22 08:44 021 9 gusting 17 17.2
2014-Oct-22 08:39 051 8 gusting 18 17.2
2014-Oct-22 08:29 009 13 gusting 20 17.2
2014-Oct-22 08:24 036 13 gusting 20 17.2
2014-Oct-22 08:19 009 13 gusting 20 17.2
2014-Oct-22 08:14 016 8 gusting 20 17.2
2014-Oct-22 08:09 355 12 gusting 20 17.2
2014-Oct-22 08:04 026 9 gusting 20 17.2
2014-Oct-22 07:59 042 12 gusting 20 17.2
2014-Oct-22 07:54 066 11 gusting 19 17.2
2014-Oct-22 07:49 325 12 gusting 19 17.2
2014-Oct-22 07:44 360 11 gusting 19 17.2
2014-Oct-22 07:39 041 13 gusting 20 17.2
2014-Oct-22 07:34 022 13 gusting 20 17.2
2014-Oct-22 07:24 348 12 gusting 22 16.7
2014-Oct-22 07:19 005 9 gusting 22 16.7
2014-Oct-22 07:14 338 10 gusting 22 16.7
2014-Oct-22 07:09 005 13 gusting 20 16.7
2014-Oct-22 07:04 005 11 gusting 24 16.7
2014-Oct-22 06:59 021 14 gusting 24 16.7
2014-Oct-22 06:54 011 15 gusting 21 16.7
2014-Oct-22 06:49 009 10 gusting 22 16.1
2014-Oct-22 06:43 017 12 gusting 22 16.1
2014-Oct-22 06:39 005 12 gusting 20 16.1
2014-Oct-22 06:34 348 10 gusting 21 16.1
2014-Oct-22 06:29 015 13 gusting 21 16.1
2014-Oct-22 06:24 014 11 gusting 22 16.1
2014-Oct-22 06:19 344 10 gusting 27 16.1
2014-Oct-22 06:14 360 12 gusting 30 16.1
2014-Oct-22 06:09 350 15 gusting 39 16.7
2014-Oct-22 06:03 331 22 gusting 39 17.8
2014-Oct-22 05:59 307 17 gusting 34 17.8
2014-Oct-22 05:53 305 20 gusting 34 17.8
2014-Oct-22 05:49 320 19 gusting 36 17.8
2014-Oct-22 05:44 267 19 gusting 35 18.3
2014-Oct-22 05:39 322 19 gusting 30 18.3
2014-Oct-22 05:34 331 19 gusting 30 18.9
2014-Oct-22 05:29 320 17 gusting 27 18.9
2014-Oct-22 05:24 340 15 gusting 30 18.9
2014-Oct-22 05:19 317 15 gusting 25 19.4
2014-Oct-22 05:09 317 13 gusting 24 19.4
2014-Oct-22 05:04 339 15 gusting 24 19.4
2014-Oct-22 04:59 360 13 gusting 25 19.4
2014-Oct-22 04:54 034 13 gusting 25 19.4
2014-Oct-22 04:49 348 12 gusting 21 20.0
2014-Oct-22 04:44 345 11 gusting 20 20.0
2014-Oct-22 04:39 296 12 gusting 24 20.0
2014-Oct-22 04:34 338 12 gusting 22 20.6
2014-Oct-22 04:29 337 13 gusting 22 20.6
2014-Oct-22 04:24 005 11 gusting 18 20.6
2014-Oct-22 04:19 328 9 gusting 19 20.6
2014-Oct-22 04:14 288 7 gusting 20 20.6
2014-Oct-22 04:09 258 11 gusting 19 20.6
2014-Oct-22 04:04 293 8 gusting 19 20.6
2014-Oct-22 03:59 294 12 gusting 22 20.6
2014-Oct-22 03:54 297 11 gusting 21 20.6
2014-Oct-22 03:49 304 7 gusting 19 20.6
2014-Oct-22 03:44 301 11 gusting 19 20.6
2014-Oct-22 03:39 294 9 gusting 26 21.1
2014-Oct-22 03:29 294 11 gusting 22 21.1
2014-Oct-22 03:24 311 8 gusting 13 21.7
2014-Oct-22 03:19 212 5 gusting 13 21.7
2014-Oct-22 03:14 229 6 gusting 9 21.7
2014-Oct-22 03:09 216 6 gusting 9 21.7
2014-Oct-22 03:04 218 6 gusting 8 21.7
2014-Oct-22 02:58 209 6 gusting 9 21.7
2014-Oct-22 02:54 222 6 gusting 13 21.7
2014-Oct-22 02:49 223 6 gusting 11 21.7
2014-Oct-22 02:44 225 5 gusting 13 21.7
2014-Oct-22 02:39 216 6 gusting 13 21.7
2014-Oct-22 02:34 238 7 gusting 12 21.7
2014-Oct-22 02:29 239 5 gusting 13 21.7
2014-Oct-22 02:24 216 8 gusting 18 21.7
2014-Oct-22 02:19 246 9 gusting 18 21.7
2014-Oct-22 02:14 229 10 gusting 17 21.7
2014-Oct-22 02:09 189 10 gusting 17 21.7
2014-Oct-22 01:59 211 7 gusting 19 21.7
2014-Oct-22 01:54 217 11 gusting 18 21.7
2014-Oct-22 01:49 188 10 gusting 17 21.7
2014-Oct-22 01:44 217 9 gusting 16 21.7
2014-Oct-22 01:39 208 7 gusting 18 21.7
2014-Oct-22 01:34 197 7 gusting 18 21.7
2014-Oct-22 01:29 202 7 gusting 18 21.7
2014-Oct-22 01:24 216 7 gusting 13 21.7
2014-Oct-22 01:19 190 6 gusting 15 21.7
2014-Oct-22 01:14 240 10 gusting 18 21.7
2014-Oct-22 01:09 231 9 gusting 21 21.7
2014-Oct-22 01:04 227 12 gusting 21 21.7
2014-Oct-22 00:59 205 9 gusting 18 21.7
2014-Oct-22 00:54 200 8 gusting 18 21.7
2014-Oct-22 00:49 217 8 gusting 19 21.7
2014-Oct-22 00:44 206 9 gusting 22 21.7
2014-Oct-22 00:39 178 12 gusting 26 21.7
2014-Oct-22 00:34 192 8 gusting 26 21.7
2014-Oct-22 00:29 211 9 gusting 21 21.7
2014-Oct-22 00:23 196 13 gusting 23 21.7
2014-Oct-22 00:19 219 12 gusting 23 21.7
2014-Oct-22 00:14 185 10 gusting 17 21.7
2014-Oct-22 00:09 223 10 gusting 18 21.7
2014-Oct-22 00:04 210 10 gusting 18 21.7
2014-Oct-21 23:59 200 7 gusting 17 21.7
2014-Oct-21 23:54 208 7 gusting 19 21.7
2014-Oct-21 23:49 184 10 gusting 19 21.7
2014-Oct-21 23:44 169 11 gusting 20 21.7
2014-Oct-21 23:39 187 12 gusting 20 21.7
2014-Oct-21 23:34 192 9 gusting 20 21.7
2014-Oct-21 23:24 205 9 gusting 16 21.7
2014-Oct-21 23:19 195 9 gusting 16 21.7
2014-Oct-21 23:14 225 9 gusting 20 21.7
2014-Oct-21 23:08 201 9 gusting 20 21.7
2014-Oct-21 23:03 206 6 gusting 11 21.1
2014-Oct-21 22:59 205 5 gusting 9 21.1
2014-Oct-21 22:54 181 3 gusting 6 21.1
2014-Oct-21 22:49 169 5 gusting 7 21.1
2014-Oct-21 22:44 190 4 gusting 7 21.1
2014-Oct-21 22:39 200 2 gusting 6 21.1
2014-Oct-21 22:34 130 1 gusting 6 21.1
2014-Oct-21 22:29 161 21.1
2014-Oct-21 22:24 161 2 gusting 6 21.1
2014-Oct-21 22:19 161 4 gusting 6 21.1
2014-Oct-21 22:14 170 3 gusting 6 21.1
2014-Oct-21 22:09 192 3 gusting 6 21.1
2014-Oct-21 22:05 189 3 gusting 7 21.1
2014-Oct-21 21:59 211 4 gusting 7 21.1
2014-Oct-21 21:54 198 5 gusting 7 21.1
2014-Oct-21 21:49 207 4 gusting 10 21.1
2014-Oct-21 21:44 180 5 gusting 13 21.1
2014-Oct-21 21:39 180 8 gusting 13 21.1
2014-Oct-21 21:34 194 6 gusting 9 20.6
2014-Oct-21 21:29 240 5 gusting 8 20.6
2014-Oct-21 21:24 222 4 gusting 7 20.6
2014-Oct-21 21:18 194 4 gusting 7 20.6
2014-Oct-21 21:13 187 4 gusting 7 20.6
2014-Oct-21 21:09 179 6 gusting 7 20.6
2014-Oct-21 21:04 174 5 gusting 7 20.6
2014-Oct-21 20:59 202 5 gusting 7 20.0
2014-Oct-21 20:54 190 4 gusting 7 20.0
2014-Oct-21 20:49 184 4 gusting 8 19.4
2014-Oct-21 20:44 182 4 gusting 6 19.4
2014-Oct-21 20:39 165 4 gusting 6 19.4
2014-Oct-21 20:33 163 4 gusting 6 19.4
2014-Oct-21 20:29 157 3 gusting 5 19.4
2014-Oct-21 20:24 160 3 gusting 5 19.4
2014-Oct-21 20:19 160 2 gusting 5 19.4
2014-Oct-21 20:14 144 1 gusting 4 19.4
2014-Oct-21 20:09 144 2 gusting 4 19.4
2014-Oct-21 20:04 145 3 gusting 4 19.4
2014-Oct-21 19:59 145 2 gusting 4 19.4
2014-Oct-21 19:54 145 1 gusting 3 19.4
2014-Oct-21 19:48 145 19.4
2014-Oct-21 19:44 145 2 gusting 5 20.0
2014-Oct-21 19:39 145 2 gusting 5 20.0
2014-Oct-21 19:33 161 2 gusting 5 20.0
2014-Oct-21 19:29 161 2 gusting 5 20.0
2014-Oct-21 19:24 161 2 gusting 5 20.0
2014-Oct-21 19:19 161 3 gusting 5 20.0
2014-Oct-21 19:14 142 3 gusting 6 20.0
2014-Oct-21 19:09 153 4 gusting 6 20.6
2014-Oct-21 19:03 136 2 gusting 4 20.6
2014-Oct-21 18:58 135 2 gusting 5 20.6
2014-Oct-21 18:54 134 3 gusting 5 20.6
2014-Oct-21 18:49 128 2 gusting 5 20.6
2014-Oct-21 18:44 161 2 gusting 4 21.1
2014-Oct-21 18:39 163 1 gusting 3 21.1
2014-Oct-21 18:34 163 0 gusting 4 21.1
2014-Oct-21 18:29 163 1 gusting 4 21.1
2014-Oct-21 18:23 184 2 gusting 4 21.1
2014-Oct-21 18:19 185 1 gusting 5 21.1
2014-Oct-21 18:14 185 3 gusting 5 21.1
2014-Oct-21 18:09 186 3 gusting 5 21.1
2014-Oct-21 18:03 191 3 gusting 6 21.1
2014-Oct-21 17:59 191 3 gusting 6 21.1
2014-Oct-21 17:54 180 2 gusting 5 21.1
2014-Oct-21 17:49 180 3 gusting 5 21.1
2014-Oct-21 17:44 175 3 gusting 6 21.1
2014-Oct-21 17:39 165 4 gusting 6 21.1
2014-Oct-21 17:34 165 3 gusting 6 21.1
2014-Oct-21 17:29 175 4 gusting 6 21.1
2014-Oct-21 17:24 190 4 gusting 6 21.1
2014-Oct-21 17:19 172 4 gusting 6 21.7
2014-Oct-21 17:14 178 3 gusting 5 21.7
2014-Oct-21 17:09 182 2 gusting 4 21.7
2014-Oct-21 17:04 182 2 gusting 4 21.7
2014-Oct-21 16:59 182 3 gusting 5 21.7
2014-Oct-21 16:54 182 3 gusting 5 21.7
2014-Oct-21 16:49 177 3 gusting 5 21.7
2014-Oct-21 16:44 177 3 gusting 6 21.7
2014-Oct-21 16:39 182 3 gusting 6 21.7
2014-Oct-21 16:34 197 5 gusting 6 22.2
2014-Oct-21 16:29 196 4 gusting 6 22.2
2014-Oct-21 16:24 185 4 gusting 6 22.2
2014-Oct-21 16:19 184 4 gusting 6 22.2
2014-Oct-21 16:14 201 3 gusting 6 22.8
2014-Oct-21 16:09 207 1 gusting 5 22.8
2014-Oct-21 16:03 207 1 gusting 5 22.8
2014-Oct-21 15:59 199 1 gusting 5 22.8
2014-Oct-21 15:54 198 0 gusting 3 22.8
2014-Oct-21 15:49 198 0 gusting 6 22.8
2014-Oct-21 15:44 198 4 gusting 6 22.8
2014-Oct-21 15:39 188 4 gusting 7 22.8
2014-Oct-21 15:34 189 5 gusting 7 22.8
2014-Oct-21 15:29 203 4 gusting 6 22.8
2014-Oct-21 15:24 182 4 gusting 6 22.8
2014-Oct-21 15:18 207 4 gusting 8 23.3
2014-Oct-21 15:14 180 5 gusting 8 23.3
2014-Oct-21 15:09 178 5 gusting 9 23.3
2014-Oct-21 15:04 197 6 gusting 9 23.3
2014-Oct-21 14:59 206 6 gusting 15 23.3
2014-Oct-21 14:39 244 7 gusting 13 23.3
2014-Oct-21 14:34 178 6 gusting 13 23.3
2014-Oct-21 14:29 216 6 gusting 11 23.3
2014-Oct-21 14:24 198 7 gusting 13 23.9
2014-Oct-21 14:19 205 6 gusting 13 23.9
2014-Oct-21 14:14 218 6 gusting 11 23.9
2014-Oct-21 14:08 213 6 gusting 16 23.9
2014-Oct-21 14:04 175 9 gusting 16 23.9
2014-Oct-21 13:59 220 6 gusting 13 23.9
2014-Oct-21 13:39 211 6 gusting 13 23.9
2014-Oct-21 13:33 218 7 gusting 13 23.9
2014-Oct-21 13:29 163 7 gusting 15 23.9
2014-Oct-21 13:23 202 8 gusting 15 23.9
2014-Oct-21 13:19 180 7 gusting 13 23.9
2014-Oct-21 13:13 188 9 gusting 13 23.9
2014-Oct-21 13:09 182 6 gusting 15 23.9
2014-Oct-21 13:03 196 9 gusting 15 23.9
2014-Oct-21 12:58 178 7 gusting 13 23.9
2014-Oct-21 12:54 200 8 gusting 13 23.9
2014-Oct-21 12:49 188 6 gusting 13 23.9
2014-Oct-21 12:44 213 8 gusting 12 23.9
2014-Oct-21 12:39 188 7 gusting 15 23.9
2014-Oct-21 12:33 245 7 gusting 15 23.9
2014-Oct-21 12:29 188 6 gusting 13 23.9
2014-Oct-21 12:24 162 6 gusting 13 23.9
2014-Oct-21 12:19 190 6 gusting 13 23.9
2014-Oct-21 12:14 207 5 gusting 10 23.9
2014-Oct-21 12:09 188 6 gusting 10 23.9
2014-Oct-21 12:04 219 6 gusting 10 23.9
2014-Oct-21 11:59 203 6 gusting 13 23.9
2014-Oct-21 11:54 216 7 gusting 13 23.9
2014-Oct-21 11:49 234 7 gusting 11 23.9
2014-Oct-21 11:44 225 6 gusting 12 23.3
2014-Oct-21 11:39 209 7 gusting 12 23.3
2014-Oct-21 11:34 217 7 gusting 12 23.3
2014-Oct-21 11:28 190 6 gusting 11 23.3
2014-Oct-21 11:23 216 6 gusting 10 23.3
2014-Oct-21 11:19 230 6 gusting 9 22.8
2014-Oct-21 11:14 198 3 gusting 12 22.8
2014-Oct-21 10:59 204 6 gusting 12 22.8
2014-Oct-21 10:54 267 5 gusting 12 22.8
2014-Oct-21 10:44 205 4 gusting 11 22.2
2014-Oct-21 10:34 238 7 gusting 12 22.2
2014-Oct-21 10:29 211 6 gusting 12 22.2
2014-Oct-21 10:23 187 6 gusting 11 22.2
2014-Oct-21 10:19 225 7 gusting 12 22.2
2014-Oct-21 10:14 206 8 gusting 13 22.2
2014-Oct-21 10:09 221 6 gusting 13 22.2
2014-Oct-21 10:04 224 9 gusting 17 22.2
2014-Oct-21 09:58 198 9 gusting 13 22.2
2014-Oct-21 09:54 194 7 gusting 13 22.2
2014-Oct-21 09:48 229 8 gusting 12 22.2
2014-Oct-21 09:39 232 4 gusting 12 22.2
2014-Oct-21 09:33 162 5 gusting 13 22.2
2014-Oct-21 09:29 223 5 gusting 13 22.2
2014-Oct-21 09:24 208 4 gusting 13 22.2
2014-Oct-21 09:19 248 7 gusting 13 22.8
2014-Oct-21 09:14 226 6 gusting 12 22.8
2014-Oct-21 09:08 236 6 gusting 17 22.8
2014-Oct-21 09:04 191 9 gusting 17 22.2
2014-Oct-21 08:59 238 6 gusting 17 22.2
2014-Oct-21 08:54 232 8 gusting 17 22.2
2014-Oct-21 08:49 196 7 gusting 16 22.2
2014-Oct-21 08:44 160 8 gusting 16 22.2
2014-Oct-21 08:33 210 6 gusting 13 21.7
2014-Oct-21 08:28 226 6 gusting 13 21.7
2014-Oct-21 08:24 213 7 gusting 13 21.1
2014-Oct-21 08:19 222 6 gusting 11 21.1
2014-Oct-21 08:14 186 5 gusting 10 21.1
2014-Oct-21 08:08 199 5 gusting 10 21.1
2014-Oct-21 08:04 175 5 gusting 10 21.1
2014-Oct-21 07:59 213 5 gusting 10 21.1
2014-Oct-21 07:54 199 3 gusting 8 21.1
2014-Oct-21 07:49 207 5 gusting 7 21.1
2014-Oct-21 07:44 191 5 gusting 7 20.6
2014-Oct-21 07:39 153 5 gusting 7 20.6
2014-Oct-21 07:34 178 4 gusting 6 20.6
2014-Oct-21 07:29 186 4 gusting 6 20.0
2014-Oct-21 07:23 182 4 gusting 8 20.0
2014-Oct-21 07:19 190 6 gusting 8 20.0
2014-Oct-21 07:14 184 5 gusting 6 20.0
2014-Oct-21 07:09 192 3 gusting 6 20.0
2014-Oct-21 07:04 198 4 gusting 8 20.0
2014-Oct-21 06:59 212 5 gusting 8 20.0
2014-Oct-21 06:54 198 6 gusting 8 20.0
2014-Oct-21 06:49 189 5 gusting 8 20.0
2014-Oct-21 06:44 188 6 gusting 8 20.0
2014-Oct-21 06:39 188 5 gusting 8 20.0
2014-Oct-21 06:33 204 6 gusting 8 20.0
2014-Oct-21 06:24 188 5 gusting 8 20.0
2014-Oct-21 06:19 185 5 gusting 8 20.0
2014-Oct-21 06:14 198 6 gusting 7 20.0
2014-Oct-21 06:09 183 5 gusting 7 20.0
2014-Oct-21 06:04 201 5 gusting 7 20.0
2014-Oct-21 05:59 209 4 gusting 8 20.0
2014-Oct-21 05:54 202 4 gusting 8 20.0
2014-Oct-21 05:48 198 3 gusting 7 20.0
2014-Oct-21 05:44 200 5 gusting 7 20.0
2014-Oct-21 05:39 197 3 gusting 7 20.0
2014-Oct-21 05:33 199 5 gusting 7 20.0
2014-Oct-21 05:29 193 4 gusting 7 20.0
2014-Oct-21 05:23 201 4 gusting 7 19.4
2014-Oct-21 05:19 204 4 gusting 7 19.4
2014-Oct-21 05:14 198 3 gusting 6 19.4
2014-Oct-21 05:09 197 4 gusting 6 19.4
2014-Oct-21 05:04 191 3 gusting 6 19.4
2014-Oct-21 04:59 195 3 gusting 6 19.4
2014-Oct-21 04:53 196 4 gusting 6 19.4
2014-Oct-21 04:44 196 3 gusting 6 19.4
2014-Oct-21 04:39 185 4 gusting 6 19.4
2014-Oct-21 04:34 189 3 gusting 6 19.4
2014-Oct-21 04:29 201 3 gusting 6 19.4
2014-Oct-21 04:24 195 5 gusting 7 19.4
2014-Oct-21 04:19 206 4 gusting 7 19.4
2014-Oct-21 04:14 195 5 gusting 6 19.4
2014-Oct-21 04:09 194 5 gusting 6 19.4
2014-Oct-21 03:59 213 4 gusting 7 19.4
2014-Oct-21 03:54 183 5 gusting 7 19.4
2014-Oct-21 03:48 184 4 gusting 6 19.4
2014-Oct-21 03:44 197 4 gusting 6 19.4
2014-Oct-21 03:39 164 3 gusting 6 19.4
2014-Oct-21 03:34 172 3 gusting 6 19.4
2014-Oct-21 03:29 173 3 gusting 6 19.4
2014-Oct-21 03:24 177 4 gusting 6 19.4
2014-Oct-21 03:18 170 4 gusting 6 19.4
2014-Oct-21 03:14 169 4 gusting 5 18.9
2014-Oct-21 03:09 163 2 gusting 5 18.9
2014-Oct-21 03:04 172 4 gusting 5 18.9
2014-Oct-21 02:59 172 2 gusting 5 18.9
2014-Oct-21 02:54 181 3 gusting 5 18.9
2014-Oct-21 02:49 180 2 gusting 5 18.9
2014-Oct-21 02:44 180 2 gusting 4 18.9
2014-Oct-21 02:39 175 2 gusting 4 18.9
2014-Oct-21 02:34 177 2 gusting 5 18.9
2014-Oct-21 02:24 192 3 gusting 6 18.9
2014-Oct-21 02:18 184 4 gusting 6 18.9
2014-Oct-21 02:14 189 4 gusting 6 18.9
2014-Oct-21 02:09 186 4 gusting 6 18.9
2014-Oct-21 02:04 181 3 gusting 6 18.9